AirNav   Pilot Hours Calculator
 
 1613 users online  

9NR7 Triple F Airpark
Salemburg, North Carolina, USA

GOING TO SALEMBURG?


FAA INFORMATION EFFECTIVE 16 JUNE 2022

Location

FAA Identifier: 9NR7
Lat/Long: 35-01-06.0000N 078-33-57.0000W
35-01.100000N 078-33.950000W
35.0183333,-78.5658333
(estimated)
Elevation: 148 ft. / 45 m (estimated)
From city: 4 miles W of SALEMBURG, NC
Time zone: UTC -4 (UTC -5 during Standard Time)
Zip code: 28318

Airport Operations

Airport use: Private use. Permission required prior to landing
Activation date: 10/2008
Control tower: no
ARTCC: WASHINGTON CENTER
FSS: RALEIGH FLIGHT SERVICE STATION
Attendance: UNATNDD
Wind indicator: yes
Segmented circle: no

Airport Communications

WX AWOS-3 at CTZ (10 nm E): 119.125 (910-592-7488)
WX ASOS at FAY (16 nm W): 121.25 (910-484-1546)

Airport Services

Runway Information

Runway 9/27

Dimensions: 2200 x 70 ft. / 671 x 21 m
Surface: turf
RUNWAY 9  RUNWAY 27
Traffic pattern: leftleft
Obstructions: 50 ft. trees, 200 ft. from runwaynone

Airport Ownership and Management from official FAA records

Ownership: Privately-owned
Owner: M. D. FAIRCLOTH
3455 AUTRYVILLE RD.
AUTRYVILLE, NC 28318
Phone 910-531-3826
Manager: FREDDIE HERRING
760 MURPHY RD.
CLINTON, NC 28328
Phone 910-990-6324

Airport Operational Statistics

Aircraft based on the field: 1
Single engine airplanes: 1
    

Additional Remarks

FOR CD CTC WASHINGTON ARTCC AT 703-771-3587.

Instrument Procedures

There are no published instrument procedures at 9NR7.

Some nearby airports with instrument procedures:

KCTZ - Clinton-Sampson County Airport (10 nm E)
KFAY - Fayetteville Regional Airport/Grannis Field (16 nm W)
KFBG - Simmons Army Airfield (19 nm W)
KHRJ - Harnett Regional Jetport Airport (23 nm N)
KPOB - Pope Army Airfield (24 nm NW)
 
Loc | Ops | Rwys | IFR | FBO | Links
Com | Nav | Svcs | Stats | Notes
Aerial photo
No photo
 
Sectional chart

 
Airport distance calculator
Flying to Triple F Airpark? Find the distance to fly.

From to 9NR7

Sunrise and sunset
Times for 29-Jun-2022
 Local
(UTC-4)
 Zulu
(UTC)
Morning civil twilight05:3409:34
Sunrise06:0410:04
Sunset20:3100:31
Evening civil twilight21:0101:01

Current date and time
Zulu (UTC)  29-Jun-2022 15:46:25
Local (UTC-4)  29-Jun-2022 11:46:25
 
METAR
KCTZ 
10nm E 
291535Z AUTO 16004KT 10SM SCT075 SCT095 26/23 A3028 RMK AO2 T02630231
KFAY 
16nm W 
291504Z 06008KT 10SM BKN012 26/22 A3026 RMK AO2 T02560217
KFBG 
18nm W 
291456Z AUTO 11006KT 10SM SCT015 SCT041 BKN150 25/20 A3026 RMK AO2 SLP248 60000 T02500204 52011 $
TAF
KFAY 
16nm W 
291404Z 2914/3012 VRB03KT P6SM VCSH SCT018 OVC025 TEMPO 2915/2916 SCT025 BKN040 FM291600 15006KT P6SM VCSH SCT025 BKN050 TEMPO 2918/2922 3SM -TSRA BKN030CB FM300000 16004KT P6SM BKN250 FM300800 00000KT 3SM BR SCT001 BKN015 FM301000 00000KT 1/2SM FG VV001
KFBG 
18nm W 
291017Z 2910/3015 VRB06KT 9999 SCT015 SCT020 BKN025 QNH3018INS BECMG 2914/2915 12009KT 8000 -SHRA BKN020 QNH3025INS BECMG 2921/2922 VRB06KT 9999 NSW SCT025 BKN030 QNH3021INS BECMG 3004/3005 VRB06KT 4800 BR BKN004 QNH3022INS BECMG 3013/3014 VRB06KT 9999 NSW SCT030 QNH3025INS TX26/2921Z TN21/2911Z
NOTAMs
Click for the latest NOTAMs
NOTAMs are issued by the DoD/FAA and will open in a separate window not controlled by AirNav.

 

 
 

Would you like to see your business listed on this page?

 If your business provides an interesting product or service to pilots, flight crews, aircraft, or users of the Triple F Airpark, you should consider listing it here.  To start the listing process, click on the button below
 
Add a business
 

Other Pages about Triple F Airpark

Update a link
 
Copyright © AirNav, LLC. All rights reserved. Privacy Policy  Contact